Regional Weather Roundup
Issued by NWS Charleston, SC

Current Version | Previous Version | Text Only | Print | Product List | Glossary Off
Versions: 1 2 3 4 5 6 7 8 9 10 11 12 13 14 15 16 17 18 19 20 21 22 23 24 25 26 27 28 29 30 31 32 33 34 35 36 37 38 39 40 41 42 43 44 45 46 47 48 49 50

000
ASUS42 KCHS 060727
RWRCHS

REGIONAL WEATHER ROUNDUP
NATIONAL WEATHER SERVICE CHARLESTON SC
300 AM EDT WED MAY 06 2015

NOTE: "FAIR" INDICATES FEW OR NO CLOUDS BELOW 12,000 FEET WITH NO
SIGNIFICANT WEATHER AND/OR OBSTRUCTIONS TO VISIBILITY.

NOT ALL STATIONS ARE QUALITY CONTROLLED BY THE NATIONAL
WEATHER SERVICE. USE DATA WITH CAUTION...ESPECIALLY
DEWPOINT OBSERVATIONS.

SCZ027-030-031-034>040-042>050-060800-
...SOUTHEAST SOUTH CAROLINA...

CITY           SKY/WX    TMP DP  RH WIND       PRES   REMARKS
N CHARLESTON   PTCLDY    61  59  93 NE6       30.20F
WATERFRONT PRK   N/A     64 N/A N/A N7          N/A
MOUNT PLEASANT FAIR      63  61  94 MISG      30.20F
PINOPOLIS        N/A     66  63  88 E7        30.12
MONCKS CORNER  FAIR      61  59  94 NE3       30.20F
SUMMERVILLE    FAIR      57  57 100 CALM      30.21F
BEAUFORT MCAS  PTCLDY    63  61  93 NE6       30.19F
BEAUFORT ARPT  FAIR      64  63  94 CALM      30.18F
HILTON HEAD IS CLOUDY    66  64  94 N6        30.19F
WALTERBORO     PTSUNNY   55  55 100 CALM      30.21F
ALLENDALE      PTSUNNY   61  59  94 CALM      30.20F

...SOUTHERN MIDLANDS AND PEE DEE...

CITY           SKY/WX    TMP DP  RH WIND       PRES   REMARKS
GEORGETOWN     NOT AVBL
KINGSTREE      NOT AVBL
ORANGEBURG     MOCLDY    57  53  86 CALM      30.22F
BARNWELL       FAIR      57  55  94 CALM      30.22F
AIKEN          FAIR      54  50  87 CALM      30.26F
MANNING        FAIR      54  48  82 CALM      30.22F
COLUMBIA       MOCLDY    58  52  80 CALM      30.23F
SUMTER         PTCLDY    58  53  84 NE3       30.22F
FLORENCE       MOCLDY    59  55  87 CALM      30.24F
MYRTLE BEACH   MOCLDY    63  55  77 N6        30.24F
N MYRTLE BEACH CLOUDY    59  56  89 NE3       30.22F

$$

GAZ063-065-086>088-099>101-113>116-118-119-134>141-150-060800-
...SOUTHEAST GEORGIA...

CITY           SKY/WX    TMP DP  RH WIND       PRES   REMARKS
SAVANNAH ARPT  MOCLDY    63  60  90 N5        30.18F
HUNTER AAF     MOCLDY    65  63  91 CALM      30.15F
FORT STEWART   PTCLDY    63  60  89 NE6       30.15F
STATESBORO       N/A     58  58 100 CALM      30.20S
SYLVANIA       PTSUNNY   61  60  97 E5        30.21S
CLAXTON        FAIR      59  59 100 CALM      30.18F

...CSRA...CENTRAL AND FAR SOUTHEAST GEORGIA...

CITY           SKY/WX    TMP DP  RH WIND       PRES   REMARKS
THOMSON        PTCLDY    54  54 100 CALM      30.27F
AUGUSTA-BUSH   PTCLDY    54  52  93 CALM      30.22F
AUGUSTA-DANIEL PTCLDY    65  55  70 SE5       30.23F
SWAINSBORO     FAIR      59  59 100 CALM      30.20F
VIDALIA        PTCLDY    63  61  94 NE5       30.18F
EASTMAN        FAIR      56  56 100 CALM      30.21F
HAZLEHURST     FAIR      64  61  91 NE3       30.17S
ALMA           PTCLDY    61  59  93 CALM      30.17F
WAYCROSS       MOCLDY    66  64  94 CALM      30.15F
JESUP          FAIR      68  64  88 CALM      30.16F
BAXLEY         MOCLDY    64  61  88 CALM      30.16F
BRUNSWICK      MOCLDY    68  64  88 N5        30.16F
SAINT SIMONS   MOCLDY    69  65  86 N7        30.15F

$$

SCZ027-028-034-036>038-045-046-048>050-GAZ119-141-060800-
...LAKE AND SUPPLEMENTAL COASTAL OBSERVATIONS...

STATION/POSITION TIME  TEMP    WIND        PRES    WAVE   SWELL
                       AIR SEA DIR/SP/G            HT/PER HT/PER/DIR
                 (UTC) (F)     (DEG/KT/KT) (MB)    (FT/S) (FT/S/D)
UPR LAKE MARION  NOT AVBL
WINYAH BAY       0545   65     360/  4     1023.0
LAKE MURRAY      0600   67     140/  3/  5 1023.7F
ACE BASIN NERRS  NOT AVBL
FORT PULASKI     0700   70 71   30/  7/ 10 1022.1F
SAPELO ISLAND    0600   69      40/  7     1022.0S

$$

ANZ835-935-AMZ111-154-330-350-352-354-370-450-454-472-060800-
...C-MAN AND BUOY OBSERVATIONS...

STATION/POSITION TIME  TEMP    WIND        PRES    WAVE   SWELL
                       AIR SEA DIR/SP/G            HT/PER HT/PER/DIR
                 (UTC) (F)     (DEG/KT/KT) (MB)    (FT/S) (FT/S/D)
BUOY 41004       0650   74 73   80/ 14/ 16 1021.5F   5/ 7   3/ 7
BUOY 41008       0650   71 70   40/ 12/ 14 1020.9F   4/ 7   3/100/ 7
FOLLY BEACH CMAN 0700   69      20/  9/ 10 1022.2F
CAPERS NEARSHORE 0608   71      60/  8/ 12 1023.0F
FRIPP NEARSHORE  0600   70      60/ 10/ 14 1021.8F


STATION/POSITION TIME  TEMP    WIND        PRES    WAVE   SWELL
                       AIR SEA DIR/SP/G            HT/PER HT/PER/DIR
                 (UTC) (F)     (DEG/KT/KT) (MB)    (FT/S) (FT/S/D)
5E ST. MARYS GA  0621      71                N/A     4/ 7
FRYING PAN BUOY  0650   73 71  110/ 10/ 12 1024.0F   5/ 7   3/150/ 7
BUOY 41025       0650   70 75  160/  6/  8 1024.8F   3/ 9   3/ 50/ 9
CAPE LOOKOUT NC  0700   68      80/  4/  5 1024.1F
BUOY 41002       0650   70 71  100/ 16/ 19 1022.5F   7/ 8   3/110/ 8
BUOY 41010       0620   75 78   70/ 16/ 21 1017.1F
ST AUGUSTINE FL  0700   70 72   60/  8/  9 1019.9F


$$


USA.gov is the U.S. government's official web portal to all federal, state and local government web resources and services.